{"data":{"norad_id":56757,"epoch":"2026-09-19T19:11:38.543424Z","epoch_age_seconds":78520,"freshness":"FRESH","line1":"1 56757U 23075A   26262.79975166  .00000140  00000+0  00000+0 0  9998","line2":"2 56757   0.0763  22.8428 0001619   0.9722 288.8180  1.00271476 12063","mean_motion":1.00271476,"eccentricity":0.0001619,"inclination_deg":0.0763,"raan_deg":22.8428,"arg_perigee_deg":0.9722,"mean_anomaly_deg":288.818,"bstar":0,"rev_number":1206,"period_min":1436.1013295546,"perigee_km":35779.855101201,"apogee_km":35793.508069459,"semimajor_km":42164.81858533,"source":"CELESTRAK","updated_at":"2026-09-20T09:00:35.333023Z"}}